Latest Weather Observations for Renmark Airport

IDS60801

Issued at 11:05 am CDT Tuesday 25 November 2014 (issued every 30 minutes, with the page automatically refreshed every 10 minutes)

About weather observations | Map of weather stations | Latest weather observations for SA | Other Formats
Station Details ID: 024048 Name: RENMARK AERO Lat: -34.20 Lon: 140.68 Height: 31.5 m
Data from the previous 72 hours. | See also: Recent months at Renmark Airport
Date/Time
CDT
Temp
°C
App
Temp
°C
Dew
Point
Rel
Hum
%
Delta-T
°C
Wind Press
QNH
hPa
Press
MSL
hPa
Rain
since 9 am
mm
Dir
 
Spd
km/h
Gust
km/h
Spd
kts
Gust
kts
25/11:00am 19.1 16.3 5.2 40 6.7 SW 9 15 5 8 1022.5 1022.4 0.0
25/10:30am 18.4 15.9 4.9 41 6.5 S 7 15 4 8 1022.7 1022.6 0.0
25/10:00am 17.5 13.6 5.4 45 5.8 S 15 24 8 13 1022.8 1022.7 0.0
25/09:30am 16.6 12.5 6.1 50 5.1 S 17 26 9 14 1022.9 1022.8 0.0
25/09:00am 16.4 12.9 7.1 54 4.6 S 15 22 8 12 1022.8 1022.7 0.0
25/08:30am 16.6 13.6 7.5 55 4.5 S 13 19 7 10 1022.7 1022.6 0.0
25/08:00am 15.4 12.7 7.2 58 4.1 WSW 11 17 6 9 1022.4 1022.3 0.0
25/07:30am 14.4 10.9 7.0 61 3.6 SW 15 20 8 11 1022.1 1022.0 0.0
25/07:00am 12.4 10.0 7.1 70 2.6 W 9 11 5 6 1021.8 1021.7 0.0
25/06:30am 9.8 7.6 6.2 78 1.7 W 7 11 4 6 1021.4 1021.3 0.0
25/06:00am 8.9 6.2 5.8 81 1.4 W 9 13 5 7 1021.1 1021.0 0.0
25/05:30am 9.1 6.4 5.8 80 1.5 W 9 13 5 7 1020.8 1020.7 0.0
25/05:00am 8.8 6.2 6.1 83 1.2 WNW 9 13 5 7 1020.4 1020.3 0.0
25/04:30am 8.5 6.1 5.3 80 1.4 W 7 11 4 6 1020.1 1020.0 0.0
25/04:00am 8.9 6.6 5.5 79 1.5 W 7 9 4 5 1019.9 1019.8 0.0
25/03:30am 8.9 6.2 5.5 79 1.5 W 9 9 5 5 1019.8 1019.7 0.0
25/03:00am 9.5 6.7 5.3 75 1.9 W 9 11 5 6 1019.8 1019.7 0.0
25/02:30am 9.9 7.2 5.5 74 2.0 W 9 11 5 6 1019.7 1019.6 0.0
25/02:00am 10.5 7.8 5.5 71 2.3 W 9 11 5 6 1019.8 1019.7 0.0
25/01:30am 11.2 8.8 5.3 67 2.7 W 7 9 4 5 1019.8 1019.7 0.0
25/01:00am 12.6 10.3 5.5 62 3.3 SW 7 7 4 4 1019.8 1019.7 0.0
25/12:30am 13.1 10.3 5.3 59 3.6 SSW 9 15 5 8 1019.7 1019.6 0.0
25/12:00am 14.0 10.4 5.1 55 4.1 S 13 19 7 10 1019.7 1019.6 0.0
 
Date/Time
CDT
Temp
°C
App
Temp
°C
Dew
Point
Rel
Hum
%
Delta-T
°C
Wind Press
QNH
hPa
Press
MSL
hPa
Rain
since 9 am
mm
Dir
 
Spd
km/h
Gust
km/h
Spd
kts
Gust
kts
24/11:30pm 14.6 9.8 4.9 52 4.5 S 19 26 10 14 1019.5 1019.4 0.0
24/11:00pm 15.1 10.1 4.8 50 4.8 SSW 20 30 11 16 1019.0 1018.9 0.0
24/10:30pm 15.7 10.3 4.7 48 5.2 SSW 22 35 12 19 1018.6 1018.5 0.0
24/10:00pm 16.3 10.9 4.4 45 5.6 SSW 22 33 12 18 1018.1 1018.0 0.0
24/09:30pm 16.7 11.0 5.0 46 5.6 SSW 24 37 13 20 1017.5 1017.4 0.0
24/09:00pm 17.4 10.2 5.0 44 5.9 SSW 32 44 17 24 1016.7 1016.6 0.0
24/08:30pm 18.0 11.5 4.6 41 6.4 SSW 28 43 15 23 1016.2 1016.1 0.0
24/08:00pm 18.9 12.0 4.7 39 6.8 S 30 44 16 24 1015.6 1015.5 0.0
24/07:30pm 20.1 12.7 5.0 37 7.4 S 33 50 18 27 1014.7 1014.7 0.0
24/07:05pm 21.6 14.9 5.5 35 8.0 SSW 30 48 16 26 1014.0 1013.9 0.0
24/07:00pm 21.5 14.5 5.8 36 7.9 SSW 32 48 17 26 1013.8 1013.7 0.0
24/06:33pm 22.3 14.8 6.5 36 8.1 SSW 35 57 19 31 1013.0 1012.9 0.0
24/06:30pm 22.7 15.2 6.5 35 8.3 SSW 35 48 19 26 1013.0 1012.9 0.0
24/06:00pm 23.6 16.8 7.7 36 8.4 SW 33 46 18 25 1012.4 1012.3 0.0
24/05:42pm 23.8 16.8 8.6 38 8.1 SW 35 54 19 29 1011.9 1011.8 0.0
24/05:35pm 23.4 15.7 8.7 39 7.9 SW 39 48 21 26 1011.7 1011.6 0.0
24/05:30pm 23.5 16.2 8.8 39 7.9 SSW 37 50 20 27 1011.7 1011.6 0.0
24/05:00pm 24.6 17.7 9.0 37 8.4 SSW 35 54 19 29 1011.1 1011.0 0.0
24/04:45pm 24.7 17.6 8.2 35 8.8 SSW 35 54 19 29 1011.1 1011.0 0.0
24/04:30pm 25.5 17.6 9.3 36 8.9 SSW 41 48 22 26 1010.6 1010.5 0.0
24/04:14pm 24.7 18.2 10.2 40 8.0 SW 35 56 19 30 1010.5 1010.4 0.0
24/04:00pm 25.5 18.9 10.1 38 8.5 S 35 46 19 25 1010.5 1010.4 0.0
24/03:30pm 27.8 21.2 8.6 30 10.5 SW 33 52 18 28 1010.0 1009.9 0.0
24/03:04pm 27.9 22.0 7.7 28 10.9 SW 28 46 15 25 1009.9 1009.8 0.0
24/03:00pm 28.4 22.5 7.6 27 11.2 SW 28 41 15 22 1010.0 1009.9 0.0
24/02:48pm 27.8 21.2 7.6 28 10.9 SW 32 50 17 27 1009.9 1009.8 0.0
24/02:30pm 28.0 21.8 7.8 28 10.9 SW 30 44 16 24 1010.0 1009.9 0.0
24/02:04pm 28.0 20.8 7.8 28 10.9 SW 35 54 19 29 1009.6 1009.5 0.0
24/02:00pm 27.7 21.1 8.6 30 10.4 SW 33 48 18 26 1009.7 1009.6 0.0
24/01:37pm 26.9 20.6 9.7 34 9.5 SW 33 52 18 28 1009.7 1009.6 0.0
24/01:30pm 27.3 21.0 9.6 33 9.8 SW 33 46 18 25 1009.8 1009.7 0.0
24/01:00pm 26.5 20.4 9.8 35 9.3 SW 32 46 17 25 1010.0 1009.9 0.0
24/12:43pm 27.2 21.9 11.2 36 9.1 SW 30 48 16 26 1009.8 1009.7 0.0
24/12:30pm 25.1 18.9 11.3 42 7.8 SW 35 50 19 27 1009.9 1009.8 0.0
24/12:09pm 24.6 19.1 11.9 45 7.2 SW 32 50 17 27 1009.9 1009.8 0.0
24/12:00pm 24.2 19.6 12.2 47 6.9 SW 28 44 15 24 1009.9 1009.8 0.0
24/11:30am 24.9 19.5 12.2 45 7.3 SW 32 46 17 25 1010.0 1009.9 0.0
24/11:00am 26.7 20.7 10.8 37 9.0 SW 33 46 18 25 1009.8 1009.7 0.0
24/10:30am 28.3 22.9 12.2 37 9.4 WSW 32 43 17 23 1009.2 1009.1 0.0
24/10:13am 28.5 23.2 13.2 39 9.1 WSW 33 52 18 28 1009.1 1009.0 0.0
24/10:11am 28.7 22.4 13.4 39 9.1 W 39 52 21 28 1009.0 1008.9 0.0
24/10:00am 30.7 26.4 14.3 36 10.0 NW 30 41 16 22 1009.1 1009.0 0.0
24/09:30am 29.2 24.6 14.6 41 8.9 NW 32 43 17 23 1009.4 1009.3 0.0
24/09:00am 28.2 24.1 14.8 44 8.1 NW 30 41 16 22 1009.5 1009.4 0.8
24/08:30am 27.1 24.7 15.5 49 7.1 WNW 22 30 12 16 1009.5 1009.4 0.8
24/08:00am 25.5 24.1 15.5 54 6.1 W 17 30 9 16 1009.3 1009.2 0.8
24/07:30am 22.9 23.0 15.5 63 4.4 WNW 9 13 5 7 1008.6 1008.5 0.8
24/07:00am 23.2 22.0 15.0 60 4.9 N 15 19 8 10 1007.6 1007.5 0.8
24/06:30am 23.0 21.3 14.8 60 4.9 N 17 20 9 11 1007.2 1007.1 0.8
24/06:00am 23.0 20.5 14.0 57 5.3 N 20 24 11 13 1007.0 1006.9 0.8
24/05:30am 23.0 21.0 13.8 56 5.4 N 17 22 9 12 1007.0 1006.9 0.8
24/05:00am 23.3 21.2 13.5 54 5.7 N 17 24 9 13 1007.0 1006.9 0.8
24/04:30am 21.7 21.5 14.6 64 4.2 N 9 17 5 9 1006.9 1006.8 0.8
24/04:00am 20.7 22.1 15.5 72 3.1 N 2 7 1 4 1007.3 1007.2 0.8
24/03:30am 21.7 20.5 15.1 66 3.9 NNE 15 19 8 10 1007.0 1006.9 0.8
24/03:00am 21.5 21.8 15.1 67 3.8 NNW 7 11 4 6 1007.9 1007.8 0.8
24/02:30am 21.2 21.1 16.0 72 3.1 NW 11 15 6 8 1008.1 1008.0 0.8
24/02:00am 21.3 20.8 15.8 71 3.3 NW 13 15 7 8 1008.4 1008.3 0.8
24/01:30am 20.3 20.7 16.3 78 2.4 NE 9 13 5 7 1008.2 1008.1 0.8
24/01:00am 20.6 23.7 18.7 89 1.2 CALM 0 0 0 0 1008.5 1008.4 0.6
24/12:30am 20.7 23.5 17.9 84 1.7 CALM 0 0 0 0 1008.9 1008.8 0.6
24/12:00am 21.3 22.4 15.6 70 3.4 NNE 4 7 2 4 1009.4 1009.3 0.6
 
Date/Time
CDT
Temp
°C
App
Temp
°C
Dew
Point
Rel
Hum
%
Delta-T
°C
Wind Press
QNH
hPa
Press
MSL
hPa
Rain
since 9 am
mm
Dir
 
Spd
km/h
Gust
km/h
Spd
kts
Gust
kts
23/11:30pm 20.8 21.7 16.0 74 2.9 ENE 6 11 3 6 1008.9 1008.8 0.6
23/11:00pm 20.6 21.1 14.9 70 3.4 E 6 7 3 4 1009.2 1009.1 0.6
23/10:30pm 20.4 19.3 14.3 68 3.6 SE 13 15 7 8 1008.4 1008.3 0.6
23/10:00pm 20.1 22.0 15.7 76 2.6 CALM 0 0 0 0 1009.1 1009.0 0.6
23/09:30pm 21.4 22.6 15.0 67 3.8 SSE 2 7 1 4 1008.9 1008.8 0.6
23/09:00pm 21.8 21.3 13.7 60 4.7 SE 9 9 5 5 1009.2 1009.1 0.6
23/08:30pm 22.8 22.7 13.3 55 5.5 NE 6 7 3 4 1009.0 1008.9 0.6
23/08:00pm 24.1 22.5 12.7 49 6.6 E 13 15 7 8 1008.5 1008.4 0.6
23/07:30pm 24.5 23.1 13.4 50 6.5 ENE 13 17 7 9 1009.2 1009.1 0.6
23/07:15pm 24.7 23.4 13.6 50 6.5 NNE 13 22 7 12 1009.7 1009.6 0.6
23/07:00pm 24.4 21.8 13.9 52 6.2 ENE 20 26 11 14 1007.7 1007.6 0.6
23/06:59pm 24.3 21.8 14.1 53 6.0 ENE 20 26 11 14 1007.8 1007.7 0.6
23/06:30pm 24.4 22.2 14.5 54 5.9 ENE 19 24 10 13 1009.8 1009.7 0.6
23/06:00pm 24.0 23.3 16.3 62 4.7 ENE 15 20 8 11 1010.9 1010.8 0.6
23/05:30pm 24.0 22.9 16.3 62 4.7 N 17 20 9 11 1012.3 1012.2 0.4
23/05:00pm 28.3 25.5 8.6 29 10.8 NNW 13 19 7 10 1012.4 1012.3 0.0
23/04:30pm 28.9 25.2 6.3 24 12.0 SSW 15 20 8 11 1010.9 1010.8 0.0
23/04:00pm 29.1 26.5 7.6 26 11.6 SE 11 15 6 8 1010.0 1009.9 0.0
23/03:30pm 29.1 26.2 8.2 27 11.4 E 13 19 7 10 1010.6 1010.5 0.0
23/03:00pm 29.4 26.2 8.5 27 11.5 ENE 15 20 8 11 1011.4 1011.3 0.0
23/02:30pm 28.8 26.1 7.4 26 11.5 NE 11 15 6 8 1011.6 1011.5 0.0
23/02:00pm 28.5 25.9 7.7 27 11.2 NE 11 17 6 9 1011.4 1011.3 0.0
23/01:30pm 28.2 26.3 9.0 30 10.6 NE 9 17 5 9 1011.5 1011.4 0.0
23/01:00pm 28.3 27.3 7.5 27 11.2 SW 2 9 1 5 1011.5 1011.4 0.0
23/12:30pm 26.4 24.4 10.1 36 9.1 NNE 11 17 6 9 1012.0 1011.9 0.0
23/12:00pm 26.2 24.3 10.4 37 8.8 NNE 11 20 6 11 1012.3 1012.2 0.0
23/11:30am 25.5 23.2 10.5 39 8.4 N 13 19 7 10 1012.8 1012.7 0.0
23/11:00am 24.3 23.2 10.6 42 7.6 N 7 15 4 8 1013.0 1012.9 0.0
23/10:30am 23.0 21.2 10.8 46 6.8 E 11 17 6 9 1012.9 1012.8 0.0
23/10:00am 22.3 21.4 10.8 48 6.3 E 6 17 3 9 1013.6 1013.5 0.0
23/09:30am 21.1 19.5 11.4 54 5.4 S 11 17 6 9 1013.6 1013.5 0.0
23/09:00am 19.5 18.4 11.8 61 4.3 SSE 9 19 5 10 1013.7 1013.6 0.0
23/08:30am 18.5 16.3 12.0 66 3.6 S 15 22 8 12 1013.3 1013.2 0.0
23/08:00am 17.8 15.0 12.5 71 2.9 SSE 19 26 10 14 1012.8 1012.7 0.0
23/07:30am 16.7 14.0 12.8 78 2.2 SSE 19 22 10 12 1012.8 1012.7 0.0
23/07:00am 16.0 14.5 13.1 83 1.6 S 13 20 7 11 1012.5 1012.4 0.0
23/06:30am 15.4 14.1 13.6 89 1.0 S 13 17 7 9 1012.1 1012.0 0.0
23/06:00am 15.0 14.5 13.9 93 0.6 S 9 15 5 8 1011.7 1011.6 0.0
23/05:30am 15.2 14.3 13.6 90 0.9 S 11 17 6 9 1011.4 1011.3 0.0
23/05:00am 15.5 14.0 13.2 86 1.3 S 13 19 7 10 1011.5 1011.4 0.0
23/04:30am 15.8 14.2 12.7 82 1.7 SSW 13 19 7 10 1011.7 1011.6 0.0
23/04:00am 16.1 14.6 11.9 76 2.3 SSW 11 15 6 8 1011.7 1011.6 0.0
23/03:30am 16.4 15.1 11.1 71 2.9 SSW 9 15 5 8 1011.4 1011.3 0.0
23/03:00am 16.8 14.6 10.9 68 3.2 SSW 13 20 7 11 1010.7 1010.6 0.0
23/02:30am 17.3 14.8 10.9 66 3.4 S 15 22 8 12 1010.5 1010.4 0.0
23/02:00am 17.7 15.2 11.0 65 3.6 S 15 20 8 11 1010.8 1010.7 0.0
23/01:30am 18.1 16.1 11.4 65 3.7 S 13 20 7 11 1011.2 1011.1 0.0
23/01:00am 18.6 15.9 11.7 64 3.8 S 17 22 9 12 1011.3 1011.2 0.0
23/12:30am 19.1 16.0 12.1 64 3.9 S 20 30 11 16 1011.3 1011.2 0.0
23/12:00am 19.7 17.2 13.6 68 3.5 SSW 19 30 10 16 1010.8 1010.7 0.0
 
Date/Time
CDT
Temp
°C
App
Temp
°C
Dew
Point
Rel
Hum
%
Delta-T
°C
Wind Press
QNH
hPa
Press
MSL
hPa
Rain
since 9 am
mm
Dir
 
Spd
km/h
Gust
km/h
Spd
kts
Gust
kts
22/11:30pm 20.7 17.9 14.4 67 3.7 SSW 22 33 12 18 1010.4 1010.3 0.0
22/11:00pm 22.0 19.4 15.8 68 3.7 SSW 24 35 13 19 1010.1 1010.0 0.0
22/10:30pm 23.6 20.9 15.6 61 4.8 SSW 24 32 13 17 1009.7 1009.6 0.0
22/10:00pm 24.9 22.0 15.2 54 5.8 S 24 35 13 19 1008.9 1008.8 0.0
22/09:30pm 25.7 23.4 14.2 49 6.8 S 19 28 10 15 1008.4 1008.3 0.0
22/09:00pm 26.2 23.3 12.3 42 8.0 S 19 26 10 14 1007.9 1007.8 0.0
22/08:30pm 26.8 23.3 12.1 40 8.5 S 22 32 12 17 1007.3 1007.2 0.0
22/08:00pm 27.3 23.9 12.5 40 8.6 S 22 30 12 16 1006.7 1006.6 0.0
22/07:30pm 28.4 24.2 12.3 37 9.4 S 26 35 14 19 1006.1 1006.0 0.0
22/07:00pm 29.5 24.3 11.5 33 10.4 SSE 30 39 16 21 1005.7 1005.6 0.0
22/06:30pm 32.4 27.9 9.9 25 12.9 ESE 24 30 13 16 1005.3 1005.2 0.0
22/06:00pm 32.5 26.6 10.5 26 12.7 SSE 32 43 17 23 1005.0 1004.9 0.0
22/05:30pm 32.6 26.5 10.6 26 12.8 SSE 33 41 18 22 1004.7 1004.6 0.0
22/05:00pm 32.1 25.9 10.2 26 12.6 SSE 33 44 18 24 1004.4 1004.3 0.0
22/04:30pm 32.5 26.0 10.5 26 12.7 SSE 35 48 19 26 1004.6 1004.5 0.0
22/04:14pm 33.2 26.0 10.5 25 13.1 S 39 46 21 25 1004.4 1004.3 0.0
22/04:00pm 35.1 29.5 8.8 20 15.0 SE 28 35 15 19 1004.4 1004.3 0.0
22/03:30pm 33.4 28.4 9.4 23 13.7 ESE 26 33 14 18 1004.7 1004.6 0.0
22/03:00pm 33.5 28.7 10.2 24 13.5 E 26 33 14 18 1005.1 1005.0 0.0
22/02:30pm 33.6 29.0 10.9 25 13.3 ESE 26 35 14 19 1005.5 1005.4 0.0
22/02:00pm 32.8 26.8 10.2 25 13.0 SE 32 44 17 24 1005.7 1005.6 0.0
22/01:30pm 31.6 26.3 9.8 26 12.4 SE 28 39 15 21 1006.7 1006.6 0.0
22/01:00pm 31.1 26.1 11.0 29 11.6 SE 28 39 15 21 1007.4 1007.3 0.0
22/12:30pm 29.3 24.5 11.8 34 10.2 ESE 28 37 15 20 1007.5 1007.4 0.0
22/12:00pm 28.8 23.9 11.4 34 10.0 ESE 28 35 15 19 1008.1 1008.0 0.0
22/11:30am 28.0 23.8 11.1 35 9.7 E 24 32 13 17 1008.4 1008.3 0.0

Other Formats:

Comma delimited format used in spreadsheet applications
http://www.bom.gov.au/fwo/IDS60801/IDS60801.95687.axf

JavaScript Object Notation format (JSON) in row-major order
http://www.bom.gov.au/fwo/IDS60801/IDS60801.95687.json